Flag for Canada Weather past 2 weeks in Brantford, Ontario, Canada

Now
54 °F

Passing clouds.


Feels Like: 50 °F
Forecast: 49 / 70 °F
Wind: 10 mph from Northwest

Location: Hamilton Airport

Current Time: Jul 29, 2014 at 1:14:02 AM

Latest Report: Jul 29, 2014 at 12:00 AM


Visibility: 15 mi

Pressure: 29.90 "Hg

Humidity: 82%

Dew point: 48 °F

Location of BrantfordLocation

Historic Weather in Brantford — Graph

°F

Brantford temperature yesterday

Maximum temperature yesterday: 68 °F (at 2:00 PM)
Minimum temperature yesterday: 54 °F (at 10:00 PM)
Average temperature yesterday: 61 °F

Past Weeks' High & Low Weather Summary

 TemperatureHumidityPressure
High82 °F (Jul 21, 4:00 PM)100% (Jul 15, 4:00 AM)30.25 "Hg (Jul 15, 4:00 AM)
Low48 °F (Jul 17, 5:00 AM)38% (Jul 17, 4:00 PM)29.57 "Hg (Jul 27, 9:00 PM)
Average65 °F77%29.95 "Hg
* Reported Midnight between Jul 13 and Jul 14 — Midnight between Jul 28 and Jul 29, Brantford, Weather by CustomWeather, © 2014

Note: Actual official high and low records may vary slightly from our data, if they occured in-between our weather recording intervals... More about our weather records

Advertising

Brantford weather history for previous 24 hours

 ConditionsComfort  
Time TempWeatherWind HumidityBarometerVisibility
12:00 AM
Jul 29
54 °FPassing clouds.10 mph82%29.90 "Hg15 mi
11:00 PM
Jul 28
54 °FPassing clouds.9 mph82%29.90 "Hg15 mi
10:00 PM54 °FPassing clouds.6 mph82%29.89 "Hg15 mi
9:00 PM55 °FPartly sunny.6 mph77%29.88 "Hg15 mi
8:00 PM59 °FPartly sunny.9 mph68%29.87 "Hg15 mi
7:00 PM61 °FBroken clouds.13 mph68%29.85 "Hg15 mi
6:00 PM64 °FBroken clouds.18 mph60%29.83 "Hg15 mi
5:00 PM66 °FBroken clouds.20 mph60%29.81 "Hg15 mi
4:00 PM68 °FPartly sunny.20 mph56%29.79 "Hg15 mi
3:00 PM68 °FPartly sunny.12 mph64%29.77 "Hg15 mi
2:00 PM68 °FBroken clouds.17 mph69%29.76 "Hg15 mi
1:00 PM64 °FBroken clouds.14 mph78%29.77 "Hg15 mi
12:00 PM61 °FBroken clouds.13 mph88%29.76 "Hg15 mi
11:00 AM59 °FSprinkles. Mostly cloudy.21 mph88%29.74 "Hg15 mi
10:00 AM59 °FSprinkles. Cloudy.17 mph94%29.70 "Hg15 mi
9:56 AM59 °FSprinkles. Partly sunny.21 mph94%29.70 "Hg15 mi
9:00 AM59 °FSprinkles. More clouds than sun.17 mph100%29.67 "Hg12 mi
8:00 AM61 °FSprinkles. Fog.17 mph94%29.64 "Hg6 mi
7:46 AM61 °FSprinkles. Fog.17 mph94%29.64 "Hg6 mi
7:00 AM61 °FRain showers. Fog.18 mph100%29.62 "Hg2 mi
6:55 AM61 °FRain showers. Fog.18 mph100%29.62 "Hg2 mi
6:00 AM63 °FLots of rain. Fog.17 mph94%29.61 "Hg1 mi
5:00 AM63 °FSprinkles. Fog.9 mph94%29.60 "Hg5 mi
4:00 AM63 °FSprinkles. Fog.15 mph100%29.58 "Hg4 mi
3:00 AM63 °FSprinkles. Fog.16 mph100%29.59 "Hg2 mi
2:00 AM63 °FSprinkles. Overcast.9 mph94%29.60 "Hg6 mi
1:00 AM63 °FSprinkles. Mostly cloudy.9 mph94%29.60 "Hg8 mi
Weather by CustomWeather, © 2014

See weather overviewHow to use our weather pages